User: anonymous   Login
Location: Coffee Creek Observatory
(38.8077°N, 94.7179°W)
Time: 01:33:31
(UTC-05:00)
Language:

Lacrosse 4 Rocket - Orbit

View from above orbital plane
View from above orbital plane
View from above satellite
View from above satellite

Ground track
Ground track

The orbit data is extracted from the following two-line orbital elements,

1 26474U 00047B   16208.05331073  .00000216  00000-0  30052-4 0  9996
2 26474  67.9941  29.1549 0060220 318.0440  41.6095 14.95235922866626
Epoch (UTC): 26 July 2016 01:16:46
Eccentricity: 0.0060220
inclination: 67.9941°
perigee height: 540 km
apogee height: 623 km
right ascension of ascending node: 29.1549°
argument of perigee: 318.0440°
revolutions per day: 14.95235922
mean anomaly at epoch: 41.6095°
orbit number at epoch: 86662

The dashed part of the orbit path shows where the satellite is in the earth's shadow,  

DLR